contact:dominique.lefevre@mio.osupytheas.fr, maurice.libes@osupytheas.fr, didier.mallarino@osupytheas.fr
Project:EMSO http://www.emso-fr.org/EMSO-France
Depth: 2436.0 m
Title:EMSO Ligure Ouest : Data MII capteur MICROCAT
DateTime_Computer,Latitude,Longitude,Temperature,Conductivity,Pressure,DateTime_Instrument
DateTime_Computer,Latitude,Longitude,degC,S m-1,dbar,DateTime_Instrument
2023-06-27T00:01:51Z,42.805,6.029,13.3024,4.60085,2470.74,2023-6-27T02:04:06Z
2023-06-27T00:04:54Z,42.805,6.029,13.3021,4.60085,2470.717,2023-6-27T02:07:09Z
2023-06-27T00:07:57Z,42.805,6.029,13.3023,4.60084,2470.777,2023-6-27T02:10:12Z
2023-06-27T00:11:00Z,42.805,6.029,13.3022,4.60086,2470.763,2023-6-27T02:13:16Z
2023-06-27T00:14:04Z,42.805,6.029,13.3024,4.60084,2470.787,2023-6-27T02:16:19Z
2023-06-27T00:17:07Z,42.805,6.029,13.3023,4.60085,2470.754,2023-6-27T02:19:22Z
2023-06-27T00:20:10Z,42.805,6.029,13.3022,4.60084,2470.777,2023-6-27T02:22:25Z
2023-06-27T00:23:13Z,42.805,6.029,13.3021,4.60084,2470.763,2023-6-27T02:25:28Z
2023-06-27T00:26:16Z,42.805,6.029,13.3021,4.60084,2470.74,2023-6-27T02:28:31Z
2023-06-27T00:29:19Z,42.805,6.029,13.3024,4.60084,2470.763,2023-6-27T02:31:34Z
2023-06-27T00:32:22Z,42.805,6.029,13.3024,4.60084,2470.763,2023-6-27T02:34:37Z
2023-06-27T00:35:25Z,42.805,6.029,13.3022,4.60085,2470.763,2023-6-27T02:37:40Z
2023-06-27T00:38:28Z,42.805,6.029,13.3023,4.60084,2470.787,2023-6-27T02:40:43Z
2023-06-27T00:41:31Z,42.805,6.029,13.3024,4.60084,2470.773,2023-6-27T02:43:46Z
2023-06-27T00:44:34Z,42.805,6.029,13.3023,4.60086,2470.777,2023-6-27T02:46:49Z
2023-06-27T00:47:37Z,42.805,6.029,13.3021,4.60084,2470.787,2023-6-27T02:49:53Z
2023-06-27T00:50:41Z,42.805,6.029,13.3024,4.60086,2470.787,2023-6-27T02:52:56Z
2023-06-27T00:53:44Z,42.805,6.029,13.3021,4.60084,2470.777,2023-6-27T02:55:59Z
2023-06-27T00:56:47Z,42.805,6.029,13.3024,4.60084,2470.763,2023-6-27T02:59:02Z
2023-06-27T00:59:50Z,42.805,6.029,13.3023,4.60086,2470.777,2023-6-27T03:02:05Z
2023-06-27T01:02:53Z,42.805,6.029,13.3022,4.60084,2470.777,2023-6-27T03:05:08Z
2023-06-27T01:05:56Z,42.805,6.029,13.3022,4.60085,2470.787,2023-6-27T03:08:11Z
2023-06-27T01:08:59Z,42.805,6.029,13.3021,4.60084,2470.8,2023-6-27T03:11:14Z
2023-06-27T01:12:02Z,42.805,6.029,13.3024,4.60084,2470.763,2023-6-27T03:14:17Z
2023-06-27T01:15:05Z,42.805,6.029,13.3023,4.60083,2470.787,2023-6-27T03:17:20Z
2023-06-27T01:18:08Z,42.805,6.029,13.3024,4.60084,2470.8,2023-6-27T03:20:23Z
2023-06-27T01:21:11Z,42.805,6.029,13.3021,4.60085,2470.787,2023-6-27T03:23:26Z
2023-06-27T01:24:14Z,42.805,6.029,13.3022,4.60084,2470.777,2023-6-27T03:26:29Z
2023-06-27T01:27:17Z,42.805,6.029,13.3024,4.60083,2470.8,2023-6-27T03:29:33Z
2023-06-27T01:30:21Z,42.805,6.029,13.3023,4.60084,2470.763,2023-6-27T03:32:36Z
2023-06-27T01:33:24Z,42.805,6.029,13.3023,4.60085,2470.81,2023-6-27T03:35:39Z
2023-06-27T01:36:27Z,42.805,6.029,13.3025,4.60084,2470.763,2023-6-27T03:38:42Z
2023-06-27T01:39:30Z,42.805,6.029,13.3019,4.60082,2470.8,2023-6-27T03:41:45Z
2023-06-27T01:42:33Z,42.805,6.029,13.3021,4.60082,2470.763,2023-6-27T03:44:48Z
2023-06-27T01:45:36Z,42.805,6.029,13.3022,4.60081,2470.777,2023-6-27T03:47:51Z
2023-06-27T01:48:39Z,42.805,6.029,13.3023,4.60081,2470.763,2023-6-27T03:50:54Z
2023-06-27T01:51:42Z,42.805,6.029,13.3023,4.60080,2470.777,2023-6-27T03:53:57Z
2023-06-27T01:54:45Z,42.805,6.029,13.3024,4.60082,2470.787,2023-6-27T03:57:00Z
2023-06-27T01:57:48Z,42.805,6.029,13.3021,4.60084,2470.8,2023-6-27T04:00:03Z
2023-06-27T02:00:51Z,42.805,6.029,13.3023,4.60085,2470.763,2023-6-27T04:03:06Z
2023-06-27T02:03:54Z,42.805,6.029,13.3023,4.60082,2470.763,2023-6-27T04:06:10Z
2023-06-27T02:06:58Z,42.805,6.029,13.3024,4.60082,2470.777,2023-6-27T04:09:13Z
2023-06-27T02:10:01Z,42.805,6.029,13.3022,4.60084,2470.8,2023-6-27T04:12:16Z
2023-06-27T02:13:04Z,42.805,6.029,13.3024,4.60083,2470.777,2023-6-27T04:15:19Z
2023-06-27T02:16:07Z,42.805,6.029,13.3023,4.60080,2470.763,2023-6-27T04:18:22Z
2023-06-27T02:19:10Z,42.805,6.029,13.3020,4.60081,2470.777,2023-6-27T04:21:25Z
2023-06-27T02:22:13Z,42.805,6.029,13.3026,4.60081,2470.8,2023-6-27T04:24:28Z
2023-06-27T02:25:16Z,42.805,6.029,13.3024,4.60080,2470.74,2023-6-27T04:27:31Z
2023-06-27T02:28:19Z,42.805,6.029,13.3021,4.60081,2470.74,2023-6-27T04:30:34Z
2023-06-27T02:31:22Z,42.805,6.029,13.3022,4.60080,2470.777,2023-6-27T04:33:37Z
2023-06-27T02:34:25Z,42.805,6.029,13.3024,4.60081,2470.777,2023-6-27T04:36:40Z
2023-06-27T02:37:28Z,42.805,6.029,13.3025,4.60081,2470.787,2023-6-27T04:39:43Z
2023-06-27T02:40:31Z,42.805,6.029,13.3021,4.60081,2470.754,2023-6-27T04:42:47Z
2023-06-27T02:43:35Z,42.805,6.029,13.3022,4.60081,2470.74,2023-6-27T04:45:50Z
2023-06-27T02:46:38Z,42.805,6.029,13.3025,4.60081,2470.754,2023-6-27T04:48:53Z
2023-06-27T02:49:41Z,42.805,6.029,13.3024,4.60084,2470.74,2023-6-27T04:51:56Z
2023-06-27T02:52:44Z,42.805,6.029,13.3020,4.60082,2470.74,2023-6-27T04:54:59Z
2023-06-27T02:55:47Z,42.805,6.029,13.3024,4.60081,2470.74,2023-6-27T04:58:02Z
2023-06-27T02:58:50Z,42.805,6.029,13.3024,4.60082,2470.74,2023-6-27T05:01:05Z
2023-06-27T03:01:53Z,42.805,6.029,13.3024,4.60081,2470.74,2023-6-27T05:04:08Z
2023-06-27T03:04:56Z,42.805,6.029,13.3018,4.60081,2470.763,2023-6-27T05:07:11Z
2023-06-27T03:07:59Z,42.805,6.029,13.3021,4.60081,2470.777,2023-6-27T05:10:14Z
2023-06-27T03:11:02Z,42.805,6.029,13.3022,4.60081,2470.74,2023-6-27T05:13:17Z
2023-06-27T03:14:05Z,42.805,6.029,13.3019,4.60081,2470.777,2023-6-27T05:16:20Z
2023-06-27T03:17:08Z,42.805,6.029,13.3019,4.60084,2470.763,2023-6-27T05:19:24Z
2023-06-27T03:20:12Z,42.805,6.029,13.3019,4.60082,2470.717,2023-6-27T05:22:27Z
2023-06-27T03:23:15Z,42.805,6.029,13.3022,4.60084,2470.777,2023-6-27T05:25:30Z
2023-06-27T03:26:18Z,42.805,6.029,13.3020,4.60082,2470.74,2023-6-27T05:28:33Z
2023-06-27T03:29:21Z,42.805,6.029,13.3020,4.60081,2470.754,2023-6-27T05:31:36Z
2023-06-27T03:32:24Z,42.805,6.029,13.3026,4.60081,2470.754,2023-6-27T05:34:39Z
2023-06-27T03:35:27Z,42.805,6.029,13.3021,4.60081,2470.717,2023-6-27T05:37:42Z
2023-06-27T03:38:30Z,42.805,6.029,13.3022,4.60081,2470.726,2023-6-27T05:40:45Z
2023-06-27T03:41:33Z,42.805,6.029,13.3024,4.60082,2470.74,2023-6-27T05:43:48Z
2023-06-27T03:44:36Z,42.805,6.029,13.3022,4.60085,2470.74,2023-6-27T05:46:51Z
2023-06-27T03:47:39Z,42.805,6.029,13.3024,4.60082,2470.717,2023-6-27T05:49:54Z
2023-06-27T03:50:42Z,42.805,6.029,13.3022,4.60084,2470.787,2023-6-27T05:52:57Z
2023-06-27T03:53:45Z,42.805,6.029,13.3025,4.60084,2470.754,2023-6-27T05:56:01Z
2023-06-27T03:56:48Z,42.805,6.029,13.3023,4.60083,2470.74,2023-6-27T05:59:04Z
2023-06-27T03:59:52Z,42.805,6.029,13.3022,4.60081,2470.74,2023-6-27T06:02:07Z
2023-06-27T04:02:55Z,42.805,6.029,13.3021,4.60082,2470.726,2023-6-27T06:05:10Z
2023-06-27T04:05:58Z,42.805,6.029,13.3021,4.60084,2470.73,2023-6-27T06:08:13Z
2023-06-27T04:09:01Z,42.805,6.029,13.3019,4.60082,2470.754,2023-6-27T06:11:16Z
2023-06-27T04:12:04Z,42.805,6.029,13.3020,4.60084,2470.74,2023-6-27T06:14:19Z
2023-06-27T04:15:07Z,42.805,6.029,13.3023,4.60081,2470.754,2023-6-27T06:17:22Z
2023-06-27T04:18:10Z,42.805,6.029,13.3024,4.60084,2470.717,2023-6-27T06:20:25Z
2023-06-27T04:21:13Z,42.805,6.029,13.3022,4.60081,2470.754,2023-6-27T06:23:28Z
2023-06-27T04:24:16Z,42.805,6.029,13.3020,4.60081,2470.73,2023-6-27T06:26:31Z
2023-06-27T04:27:19Z,42.805,6.029,13.3021,4.60080,2470.754,2023-6-27T06:29:34Z
2023-06-27T04:30:22Z,42.805,6.029,13.3026,4.60080,2470.74,2023-6-27T06:32:37Z
2023-06-27T04:33:25Z,42.805,6.029,13.3022,4.60087,2470.73,2023-6-27T06:35:41Z
2023-06-27T04:36:29Z,42.805,6.029,13.3022,4.60082,2470.73,2023-6-27T06:38:44Z
2023-06-27T04:39:32Z,42.805,6.029,13.3024,4.60083,2470.717,2023-6-27T06:41:47Z
2023-06-27T04:42:35Z,42.805,6.029,13.3019,4.60080,2470.74,2023-6-27T06:44:50Z
2023-06-27T04:45:38Z,42.805,6.029,13.3024,4.60081,2470.73,2023-6-27T06:47:53Z
2023-06-27T04:48:41Z,42.805,6.029,13.3022,4.60080,2470.754,2023-6-27T06:50:56Z
2023-06-27T04:51:44Z,42.805,6.029,13.3018,4.60082,2470.717,2023-6-27T06:53:59Z
2023-06-27T04:54:47Z,42.805,6.029,13.3024,4.60081,2470.693,2023-6-27T06:57:02Z
2023-06-27T04:57:50Z,42.805,6.029,13.3025,4.60080,2470.693,2023-6-27T07:00:05Z
2023-06-27T05:00:53Z,42.805,6.029,13.3020,4.60082,2470.717,2023-6-27T07:03:08Z
2023-06-27T05:03:56Z,42.805,6.029,13.3024,4.60081,2470.693,2023-6-27T07:06:11Z
2023-06-27T05:06:59Z,42.805,6.029,13.3023,4.60082,2470.693,2023-6-27T07:09:14Z
2023-06-27T05:10:02Z,42.805,6.029,13.3024,4.60079,2470.754,2023-6-27T07:12:18Z
2023-06-27T05:13:05Z,42.805,6.029,13.3024,4.60084,2470.693,2023-6-27T07:15:21Z
2023-06-27T05:16:09Z,42.805,6.029,13.3024,4.60081,2470.717,2023-6-27T07:18:24Z
2023-06-27T05:19:12Z,42.805,6.029,13.3024,4.60081,2470.73,2023-6-27T07:21:27Z
2023-06-27T05:22:15Z,42.805,6.029,13.3024,4.60082,2470.74,2023-6-27T07:24:30Z
2023-06-27T05:25:18Z,42.805,6.029,13.3024,4.60081,2470.717,2023-6-27T07:27:33Z
2023-06-27T05:28:21Z,42.805,6.029,13.3017,4.60081,2470.717,2023-6-27T07:30:36Z
2023-06-27T05:31:24Z,42.805,6.029,13.3021,4.60086,2470.717,2023-6-27T07:33:39Z
2023-06-27T05:34:27Z,42.805,6.029,13.3021,4.60084,2470.73,2023-6-27T07:36:42Z
2023-06-27T05:37:30Z,42.805,6.029,13.3021,4.60082,2470.754,2023-6-27T07:39:45Z
2023-06-27T05:40:33Z,42.805,6.029,13.3018,4.60084,2470.693,2023-6-27T07:42:48Z
2023-06-27T05:43:36Z,42.805,6.029,13.3023,4.60084,2470.693,2023-6-27T07:45:51Z
2023-06-27T05:46:39Z,42.805,6.029,13.3024,4.60081,2470.67,2023-6-27T07:48:55Z
2023-06-27T05:49:42Z,42.805,6.029,13.3022,4.60080,2470.73,2023-6-27T07:51:58Z
2023-06-27T05:52:45Z,42.805,6.029,13.3019,4.60081,2470.693,2023-6-27T07:55:01Z
2023-06-27T05:55:49Z,42.805,6.029,13.3024,4.60082,2470.707,2023-6-27T07:58:04Z
2023-06-27T05:58:52Z,42.805,6.029,13.3021,4.60082,2470.684,2023-6-27T08:01:07Z
2023-06-27T06:01:55Z,42.805,6.029,13.3021,4.60081,2470.693,2023-6-27T08:04:10Z
2023-06-27T06:04:58Z,42.805,6.029,13.3024,4.60084,2470.693,2023-6-27T08:07:13Z
2023-06-27T06:08:01Z,42.805,6.029,13.3020,4.60080,2470.73,2023-6-27T08:10:16Z
2023-06-27T06:11:04Z,42.805,6.029,13.3024,4.60081,2470.693,2023-6-27T08:13:19Z
2023-06-27T06:14:07Z,42.805,6.029,13.3022,4.60085,2470.717,2023-6-27T08:16:22Z
2023-06-27T06:17:10Z,42.805,6.029,13.3023,4.60081,2470.646,2023-6-27T08:19:25Z
2023-06-27T06:20:13Z,42.805,6.029,13.3022,4.60080,2470.693,2023-6-27T08:22:28Z
2023-06-27T06:23:16Z,42.805,6.029,13.3023,4.60080,2470.67,2023-6-27T08:25:31Z
2023-06-27T06:26:19Z,42.805,6.029,13.3024,4.60085,2470.684,2023-6-27T08:28:35Z
2023-06-27T06:29:22Z,42.805,6.029,13.3019,4.60080,2470.693,2023-6-27T08:31:38Z
2023-06-27T06:32:26Z,42.805,6.029,13.3019,4.60080,2470.703,2023-6-27T08:34:41Z
2023-06-27T06:35:29Z,42.805,6.029,13.3023,4.60081,2470.717,2023-6-27T08:37:44Z
2023-06-27T06:38:32Z,42.805,6.029,13.3022,4.60080,2470.67,2023-6-27T08:40:47Z
2023-06-27T06:41:35Z,42.805,6.029,13.3024,4.60080,2470.67,2023-6-27T08:43:50Z
2023-06-27T06:44:38Z,42.805,6.029,13.3024,4.60081,2470.67,2023-6-27T08:46:53Z
2023-06-27T06:47:41Z,42.805,6.029,13.3019,4.60086,2470.693,2023-6-27T08:49:56Z
2023-06-27T06:50:44Z,42.805,6.029,13.3018,4.60084,2470.684,2023-6-27T08:52:59Z
2023-06-27T06:53:47Z,42.805,6.029,13.3023,4.60082,2470.67,2023-6-27T08:56:02Z
2023-06-27T06:56:50Z,42.805,6.029,13.3020,4.60087,2470.67,2023-6-27T08:59:05Z
2023-06-27T06:59:53Z,42.805,6.029,13.3023,4.60081,2470.67,2023-6-27T09:02:08Z
2023-06-27T07:02:56Z,42.805,6.029,13.3021,4.60084,2470.661,2023-6-27T09:05:12Z
2023-06-27T07:05:59Z,42.805,6.029,13.3021,4.60081,2470.67,2023-6-27T09:08:15Z
2023-06-27T07:09:03Z,42.805,6.029,13.3019,4.60086,2470.67,2023-6-27T09:11:18Z
2023-06-27T07:12:06Z,42.805,6.029,13.3024,4.60083,2470.646,2023-6-27T09:14:21Z
2023-06-27T07:15:09Z,42.805,6.029,13.3019,4.60081,2470.684,2023-6-27T09:17:24Z
2023-06-27T07:18:12Z,42.805,6.029,13.3024,4.60087,2470.67,2023-6-27T09:20:27Z
2023-06-27T07:21:15Z,42.805,6.029,13.3016,4.60080,2470.67,2023-6-27T09:23:30Z
2023-06-27T07:24:18Z,42.805,6.029,13.3021,4.60082,2470.67,2023-6-27T09:26:33Z
2023-06-27T07:27:21Z,42.805,6.029,13.3020,4.60084,2470.646,2023-6-27T09:29:36Z
2023-06-27T07:30:24Z,42.805,6.029,13.3020,4.60084,2470.661,2023-6-27T09:32:39Z
2023-06-27T07:33:27Z,42.805,6.029,13.3019,4.60085,2470.684,2023-6-27T09:35:42Z
2023-06-27T07:36:30Z,42.805,6.029,13.3021,4.60086,2470.646,2023-6-27T09:38:45Z
2023-06-27T07:39:33Z,42.805,6.029,13.3024,4.60082,2470.661,2023-6-27T09:41:48Z
2023-06-27T07:42:36Z,42.805,6.029,13.3023,4.60088,2470.646,2023-6-27T09:44:52Z
2023-06-27T07:45:40Z,42.805,6.029,13.3020,4.60084,2470.624,2023-6-27T09:47:55Z
2023-06-27T07:48:43Z,42.805,6.029,13.3023,4.60085,2470.624,2023-6-27T09:50:58Z
2023-06-27T07:51:46Z,42.805,6.029,13.3021,4.60081,2470.67,2023-6-27T09:54:01Z
2023-06-27T07:54:49Z,42.805,6.029,13.3020,4.60089,2470.646,2023-6-27T09:57:04Z
2023-06-27T07:57:52Z,42.805,6.029,13.3024,4.60084,2470.637,2023-6-27T10:00:07Z
2023-06-27T08:00:55Z,42.805,6.029,13.3021,4.60081,2470.646,2023-6-27T10:03:10Z
2023-06-27T08:03:58Z,42.805,6.029,13.3021,4.60082,2470.646,2023-6-27T10:06:13Z
2023-06-27T08:07:01Z,42.805,6.029,13.3025,4.60084,2470.67,2023-6-27T10:09:16Z
2023-06-27T08:10:04Z,42.805,6.029,13.3026,4.60084,2470.646,2023-6-27T10:12:19Z
2023-06-27T08:13:07Z,42.805,6.029,13.3023,4.60087,2470.637,2023-6-27T10:15:22Z
2023-06-27T08:16:10Z,42.805,6.029,13.3021,4.60087,2470.646,2023-6-27T10:18:25Z
2023-06-27T08:19:13Z,42.805,6.029,13.3019,4.60082,2470.693,2023-6-27T10:21:29Z
2023-06-27T08:22:17Z,42.805,6.029,13.3022,4.60084,2470.624,2023-6-27T10:24:32Z
2023-06-27T08:25:20Z,42.805,6.029,13.3021,4.60090,2470.646,2023-6-27T10:27:35Z
2023-06-27T08:28:23Z,42.805,6.029,13.3025,4.60086,2470.646,2023-6-27T10:30:38Z
2023-06-27T08:31:27Z,42.805,6.029,13.3022,4.60086,2470.646,2023-6-27T10:33:43Z
2023-06-27T08:34:30Z,42.805,6.029,13.3026,4.60088,2470.624,2023-6-27T10:36:46Z
2023-06-27T08:37:34Z,42.805,6.029,13.3025,4.60084,2470.646,2023-6-27T10:39:49Z
2023-06-27T08:40:37Z,42.805,6.029,13.3022,4.60088,2470.661,2023-6-27T10:42:52Z
2023-06-27T08:43:40Z,42.805,6.029,13.3024,4.60084,2470.646,2023-6-27T10:45:55Z
2023-06-27T08:46:43Z,42.805,6.029,13.3023,4.60086,2470.637,2023-6-27T10:48:58Z
2023-06-27T08:49:46Z,42.805,6.029,13.3024,4.60087,2470.624,2023-6-27T10:52:01Z
2023-06-27T08:52:49Z,42.805,6.029,13.3021,4.60085,2470.624,2023-6-27T10:55:04Z
2023-06-27T08:55:52Z,42.805,6.029,13.3021,4.60085,2470.646,2023-6-27T10:58:07Z
2023-06-27T08:58:55Z,42.805,6.029,13.3020,4.60086,2470.646,2023-6-27T11:01:10Z
2023-06-27T09:01:58Z,42.805,6.029,13.3021,4.60084,2470.67,2023-6-27T11:04:13Z
2023-06-27T09:05:01Z,42.805,6.029,13.3024,4.60085,2470.646,2023-6-27T11:07:16Z
2023-06-27T09:08:04Z,42.805,6.029,13.3021,4.60086,2470.684,2023-6-27T11:10:20Z
2023-06-27T09:11:07Z,42.805,6.029,13.3021,4.60087,2470.661,2023-6-27T11:13:23Z
2023-06-27T09:14:11Z,42.805,6.029,13.3020,4.60085,2470.684,2023-6-27T11:16:26Z
2023-06-27T09:17:14Z,42.805,6.029,13.3024,4.60087,2470.646,2023-6-27T11:19:29Z
2023-06-27T09:20:17Z,42.805,6.029,13.3020,4.60085,2470.646,2023-6-27T11:22:32Z
2023-06-27T09:23:20Z,42.805,6.029,13.3022,4.60085,2470.637,2023-6-27T11:25:35Z
2023-06-27T09:26:23Z,42.805,6.029,13.3022,4.60085,2470.646,2023-6-27T11:28:38Z
2023-06-27T09:29:26Z,42.805,6.029,13.3025,4.60086,2470.684,2023-6-27T11:31:41Z
2023-06-27T09:32:29Z,42.805,6.029,13.3019,4.60087,2470.661,2023-6-27T11:34:44Z
2023-06-27T09:35:32Z,42.805,6.029,13.3024,4.60087,2470.661,2023-6-27T11:37:47Z
2023-06-27T09:38:35Z,42.805,6.029,13.3021,4.60087,2470.646,2023-6-27T11:40:50Z
2023-06-27T09:41:38Z,42.805,6.029,13.3022,4.60084,2470.684,2023-6-27T11:43:54Z
2023-06-27T09:44:42Z,42.805,6.029,13.3023,4.60086,2470.661,2023-6-27T11:46:57Z
2023-06-27T09:47:45Z,42.805,6.029,13.3021,4.60086,2470.684,2023-6-27T11:50:00Z
2023-06-27T09:50:48Z,42.805,6.029,13.3021,4.60087,2470.646,2023-6-27T11:53:03Z
2023-06-27T09:53:51Z,42.805,6.029,13.3024,4.60085,2470.646,2023-6-27T11:56:06Z
2023-06-27T09:56:54Z,42.805,6.029,13.3021,4.60085,2470.684,2023-6-27T11:59:09Z
2023-06-27T09:59:57Z,42.805,6.029,13.3027,4.60085,2470.646,2023-6-27T12:02:12Z
2023-06-27T10:03:00Z,42.805,6.029,13.3024,4.60088,2470.646,2023-6-27T12:05:15Z
2023-06-27T10:06:03Z,42.805,6.029,13.3020,4.60090,2470.646,2023-6-27T12:08:18Z
2023-06-27T10:09:06Z,42.805,6.029,13.3021,4.60087,2470.661,2023-6-27T12:11:21Z
2023-06-27T10:12:09Z,42.805,6.029,13.3024,4.60096,2470.646,2023-6-27T12:14:24Z
2023-06-27T10:15:12Z,42.805,6.029,13.3022,4.60087,2470.646,2023-6-27T12:17:28Z
2023-06-27T10:18:16Z,42.805,6.029,13.3024,4.60088,2470.684,2023-6-27T12:20:31Z
2023-06-27T10:21:19Z,42.805,6.029,13.3021,4.60088,2470.646,2023-6-27T12:23:34Z
2023-06-27T10:24:22Z,42.805,6.029,13.3024,4.60087,2470.67,2023-6-27T12:26:37Z
2023-06-27T10:27:25Z,42.805,6.029,13.3024,4.60087,2470.67,2023-6-27T12:29:40Z
2023-06-27T10:30:26Z,42.805,6.029,13.3021,4.60089,2470.693,2023-6-27T12:32:41Z
2023-06-27T10:33:29Z,42.805,6.029,13.3023,4.60089,2470.684,2023-6-27T12:35:44Z
2023-06-27T10:36:32Z,42.805,6.029,13.3024,4.60087,2470.646,2023-6-27T12:38:47Z
2023-06-27T10:39:35Z,42.805,6.029,13.3023,4.60091,2470.684,2023-6-27T12:41:50Z
2023-06-27T10:42:38Z,42.805,6.029,13.3023,4.60090,2470.684,2023-6-27T12:44:54Z
2023-06-27T10:45:41Z,42.805,6.029,13.3019,4.60088,2470.67,2023-6-27T12:47:57Z
2023-06-27T10:48:45Z,42.805,6.029,13.3022,4.60089,2470.656,2023-6-27T12:51:00Z
2023-06-27T10:51:48Z,42.805,6.029,13.3023,4.60087,2470.661,2023-6-27T12:54:03Z
2023-06-27T10:54:51Z,42.805,6.029,13.3021,4.60087,2470.67,2023-6-27T12:57:06Z
2023-06-27T10:57:54Z,42.805,6.029,13.3022,4.60088,2470.637,2023-6-27T13:00:09Z
2023-06-27T11:00:57Z,42.805,6.029,13.3020,4.60088,2470.684,2023-6-27T13:03:12Z
2023-06-27T11:04:00Z,42.805,6.029,13.3026,4.60090,2470.67,2023-6-27T13:06:15Z
2023-06-27T11:07:03Z,42.805,6.029,13.3022,4.60089,2470.67,2023-6-27T13:09:18Z
2023-06-27T11:10:06Z,42.805,6.029,13.3026,4.60090,2470.67,2023-6-27T13:12:21Z
2023-06-27T11:13:09Z,42.805,6.029,13.3023,4.60087,2470.67,2023-6-27T13:15:24Z
2023-06-27T11:16:12Z,42.805,6.029,13.3023,4.60089,2470.693,2023-6-27T13:18:27Z
2023-06-27T11:19:15Z,42.805,6.029,13.3022,4.60089,2470.693,2023-6-27T13:21:31Z
2023-06-27T11:22:19Z,42.805,6.029,13.3019,4.60087,2470.707,2023-6-27T13:24:34Z
2023-06-27T11:25:22Z,42.805,6.029,13.3024,4.60087,2470.693,2023-6-27T13:27:37Z
2023-06-27T11:28:25Z,42.805,6.029,13.3021,4.60087,2470.67,2023-6-27T13:30:40Z
2023-06-27T11:31:28Z,42.805,6.029,13.3026,4.60087,2470.67,2023-6-27T13:33:43Z
2023-06-27T11:34:31Z,42.805,6.029,13.3019,4.60087,2470.693,2023-6-27T13:36:46Z
2023-06-27T11:37:34Z,42.805,6.029,13.3024,4.60087,2470.684,2023-6-27T13:39:49Z
2023-06-27T11:40:37Z,42.805,6.029,13.3017,4.60087,2470.684,2023-6-27T13:42:52Z
2023-06-27T11:43:40Z,42.805,6.029,13.3023,4.60085,2470.693,2023-6-27T13:45:55Z
2023-06-27T11:46:43Z,42.805,6.029,13.3023,4.60086,2470.693,2023-6-27T13:48:58Z
2023-06-27T11:49:46Z,42.805,6.029,13.3021,4.60086,2470.67,2023-6-27T13:52:01Z
2023-06-27T11:52:49Z,42.805,6.029,13.3022,4.60087,2470.707,2023-6-27T13:55:05Z
2023-06-27T11:55:53Z,42.805,6.029,13.3024,4.60087,2470.693,2023-6-27T13:58:08Z
2023-06-27T11:58:56Z,42.805,6.029,13.3019,4.60087,2470.684,2023-6-27T14:01:11Z
2023-06-27T12:01:59Z,42.805,6.029,13.3024,4.60086,2470.693,2023-6-27T14:04:14Z
2023-06-27T12:05:02Z,42.805,6.029,13.3022,4.60087,2470.717,2023-6-27T14:07:17Z
2023-06-27T12:08:05Z,42.805,6.029,13.3021,4.60087,2470.73,2023-6-27T14:10:20Z
2023-06-27T12:11:08Z,42.805,6.029,13.3021,4.60087,2470.693,2023-6-27T14:13:23Z
2023-06-27T12:14:11Z,42.805,6.029,13.3023,4.60086,2470.684,2023-6-27T14:16:26Z
2023-06-27T12:17:14Z,42.805,6.029,13.3019,4.60085,2470.717,2023-6-27T14:19:29Z
2023-06-27T12:20:17Z,42.805,6.029,13.3019,4.60087,2470.717,2023-6-27T14:22:32Z
2023-06-27T12:23:20Z,42.805,6.029,13.3022,4.60087,2470.717,2023-6-27T14:25:35Z
2023-06-27T12:26:23Z,42.805,6.029,13.3021,4.60089,2470.693,2023-6-27T14:28:39Z
2023-06-27T12:29:26Z,42.805,6.029,13.3021,4.60085,2470.693,2023-6-27T14:31:42Z
2023-06-27T12:32:30Z,42.805,6.029,13.3025,4.60085,2470.73,2023-6-27T14:34:45Z
2023-06-27T12:35:33Z,42.805,6.029,13.3024,4.60087,2470.717,2023-6-27T14:37:48Z
2023-06-27T12:38:36Z,42.805,6.029,13.3026,4.60087,2470.74,2023-6-27T14:40:51Z
2023-06-27T12:41:39Z,42.805,6.029,13.3024,4.60087,2470.707,2023-6-27T14:43:54Z
2023-06-27T12:44:42Z,42.805,6.029,13.3028,4.60087,2470.693,2023-6-27T14:46:57Z
2023-06-27T12:47:45Z,42.805,6.029,13.3025,4.60085,2470.693,2023-6-27T14:50:00Z
2023-06-27T12:50:48Z,42.805,6.029,13.3023,4.60088,2470.717,2023-6-27T14:53:03Z
2023-06-27T12:53:51Z,42.805,6.029,13.3026,4.60086,2470.73,2023-6-27T14:56:06Z
2023-06-27T12:56:54Z,42.805,6.029,13.3023,4.60087,2470.74,2023-6-27T14:59:09Z
2023-06-27T12:59:57Z,42.805,6.029,13.3021,4.60086,2470.684,2023-6-27T15:02:13Z
2023-06-27T13:03:00Z,42.805,6.029,13.3024,4.60086,2470.693,2023-6-27T15:05:16Z
2023-06-27T13:06:04Z,42.805,6.029,13.3024,4.60084,2470.67,2023-6-27T15:08:19Z
2023-06-27T13:09:07Z,42.805,6.029,13.3021,4.60084,2470.717,2023-6-27T15:11:22Z
2023-06-27T13:12:10Z,42.805,6.029,13.3024,4.60086,2470.717,2023-6-27T15:14:25Z
2023-06-27T13:15:13Z,42.805,6.029,13.3024,4.60085,2470.74,2023-6-27T15:17:28Z
2023-06-27T13:18:16Z,42.805,6.029,13.3024,4.60085,2470.74,2023-6-27T15:20:31Z
2023-06-27T13:21:19Z,42.805,6.029,13.3021,4.60084,2470.717,2023-6-27T15:23:34Z
2023-06-27T13:24:22Z,42.805,6.029,13.3022,4.60084,2470.693,2023-6-27T15:26:37Z
2023-06-27T13:27:25Z,42.805,6.029,13.3019,4.60084,2470.73,2023-6-27T15:29:40Z
2023-06-27T13:30:28Z,42.805,6.029,13.3025,4.60085,2470.693,2023-6-27T15:32:43Z
2023-06-27T13:33:31Z,42.805,6.029,13.3025,4.60084,2470.693,2023-6-27T15:35:46Z
2023-06-27T13:36:34Z,42.805,6.029,13.3019,4.60084,2470.693,2023-6-27T15:38:50Z
2023-06-27T13:39:38Z,42.805,6.029,13.3024,4.60084,2470.73,2023-6-27T15:41:53Z
2023-06-27T13:42:41Z,42.805,6.029,13.3024,4.60084,2470.707,2023-6-27T15:44:56Z
2023-06-27T13:45:44Z,42.805,6.029,13.3024,4.60085,2470.703,2023-6-27T15:47:59Z
2023-06-27T13:48:47Z,42.805,6.029,13.3021,4.60085,2470.717,2023-6-27T15:51:02Z
2023-06-27T13:51:50Z,42.805,6.029,13.3022,4.60085,2470.693,2023-6-27T15:54:05Z
2023-06-27T13:54:53Z,42.805,6.029,13.3023,4.60084,2470.717,2023-6-27T15:57:08Z
2023-06-27T13:57:56Z,42.805,6.029,13.3021,4.60085,2470.717,2023-6-27T16:00:11Z
2023-06-27T14:00:59Z,42.805,6.029,13.3022,4.60084,2470.693,2023-6-27T16:03:14Z
2023-06-27T14:04:02Z,42.805,6.029,13.3024,4.60085,2470.717,2023-6-27T16:06:17Z
2023-06-27T14:07:05Z,42.805,6.029,13.3023,4.60085,2470.74,2023-6-27T16:09:20Z
2023-06-27T14:10:08Z,42.805,6.029,13.3021,4.60087,2470.74,2023-6-27T16:12:24Z
2023-06-27T14:13:11Z,42.805,6.029,13.3021,4.60084,2470.73,2023-6-27T16:15:27Z
2023-06-27T14:16:15Z,42.805,6.029,13.3021,4.60087,2470.717,2023-6-27T16:18:30Z
2023-06-27T14:19:18Z,42.805,6.029,13.3024,4.60082,2470.693,2023-6-27T16:21:33Z
2023-06-27T14:22:21Z,42.805,6.029,13.3021,4.60084,2470.679,2023-6-27T16:24:36Z
2023-06-27T14:25:24Z,42.805,6.029,13.3019,4.60084,2470.763,2023-6-27T16:27:39Z
2023-06-27T14:28:27Z,42.805,6.029,13.3022,4.60084,2470.693,2023-6-27T16:30:42Z
2023-06-27T14:31:30Z,42.805,6.029,13.3022,4.60085,2470.73,2023-6-27T16:33:45Z
2023-06-27T14:34:33Z,42.805,6.029,13.3021,4.60084,2470.693,2023-6-27T16:36:48Z
2023-06-27T14:37:36Z,42.805,6.029,13.3021,4.60082,2470.73,2023-6-27T16:39:51Z
2023-06-27T14:40:39Z,42.805,6.029,13.3024,4.60081,2470.754,2023-6-27T16:42:54Z
2023-06-27T14:43:42Z,42.805,6.029,13.3023,4.60084,2470.707,2023-6-27T16:45:58Z
2023-06-27T14:46:45Z,42.805,6.029,13.3021,4.60084,2470.707,2023-6-27T16:49:01Z
2023-06-27T14:49:49Z,42.805,6.029,13.3022,4.60083,2470.693,2023-6-27T16:52:04Z
2023-06-27T14:52:52Z,42.805,6.029,13.3019,4.60082,2470.707,2023-6-27T16:55:07Z
2023-06-27T14:55:55Z,42.805,6.029,13.3021,4.60084,2470.684,2023-6-27T16:58:10Z
2023-06-27T14:58:58Z,42.805,6.029,13.3020,4.60081,2470.717,2023-6-27T17:01:13Z
2023-06-27T15:02:01Z,42.805,6.029,13.3019,4.60082,2470.717,2023-6-27T17:04:16Z
2023-06-27T15:05:04Z,42.805,6.029,13.3021,4.60081,2470.717,2023-6-27T17:07:19Z
2023-06-27T15:08:07Z,42.805,6.029,13.3024,4.60081,2470.74,2023-6-27T17:10:22Z
2023-06-27T15:11:10Z,42.805,6.029,13.3026,4.60080,2470.693,2023-6-27T17:13:25Z
2023-06-27T15:14:13Z,42.805,6.029,13.3023,4.60081,2470.717,2023-6-27T17:16:28Z